McAlester, OK

11:01 AM CST on December 14, 2019 (GMT -0600)
McAlester Regional

Weather History for KMLC - September, 2019

Change the Weather History Date:

Monday, September 23, 2019

  Actual Average Record
Temperature  
Mean Temperature 78 °F -  
Max Temperature 82 °F 80 °F 97 °F (2000)
Min Temperature 73 °F 58 °F 42 °F (1989)
Cooling Degree Days 12    
Growing Degree Days 28 (Base 50)    
Moisture  
Dew Point 72 °F    
Average Humidity 84    
Maximum Humidity 94    
Minimum Humidity 72    
Precipitation  
Precipitation 0.03 in - - ()
Sea Level Pressure  
Sea Level Pressure 30.02 in    
Wind  
Wind Speed 4 mph (South)    
Max Wind Speed 10 mph    
Max Gust Speed 16 mph    
Visibility 10 miles    
Events Rain , Thunderstorm    
Averages and records for this station are not official NWS values.
T = Trace of Precipitation, MM = Missing Value Source: NWS Daily Summary

Daily Weather History Graph

Daily Weather History Graph

Search for Another Location

Airport or City:

Astronomy

Sep. 23, 2019 Rise Set
Actual Time 7:11 AM CDT 7:18 PM CDT
Civil Twilight 6:46 AM CDT 7:43 PM CDT
Nautical Twilight 6:17 AM CDT 8:13 PM CDT
Astronomical Twilight 5:47 AM CDT 8:43 PM CDT
Moon 1:10 AM CDT (9/23) 3:58 PM CDT (9/23)
Length of Visible Light 12h 57m
Length of Day
12h 07m
Waning Crescent, 33% of the Moon is Illuminated
Sep 23
Waning Crescent
Sep 28
New
Oct 5
First Quarter
Oct 13
Full
Oct 21
Last Quarter

Hourly Weather History & Observations

Time (CDT) Temp. Heat Index Dew Point Humidity Pressure Visibility Wind Dir Wind Speed Gust Speed Precip Events Conditions
12:53 AM 77.0 °F - 70.0 °F 79% 29.97 in 10.0 mi Calm Calm - N/A   Mostly Cloudy
1:53 AM 75.9 °F - 71.1 °F 85% 29.99 in 10.0 mi Variable 4.6 mph - 0.00 in   Mostly Cloudy
2:53 AM 75.9 °F - 71.1 °F 85% 29.98 in 10.0 mi Variable 4.6 mph - 0.00 in   Clear
3:53 AM 75.0 °F - 72.0 °F 90% 29.98 in 10.0 mi South 6.9 mph - 0.03 in   Mostly Cloudy
4:53 AM 75.9 °F - 72.0 °F 87% 29.99 in 10.0 mi South 4.6 mph - N/A   Mostly Cloudy
5:53 AM 75.0 °F - 72.0 °F 90% 29.99 in 10.0 mi South 4.6 mph - 0.00 in   Overcast
6:53 AM 75.0 °F - 72.0 °F 90% 30.01 in 10.0 mi SSW 3.5 mph - N/A   Overcast
7:53 AM 75.9 °F - 73.0 °F 91% 30.02 in 10.0 mi Calm Calm - N/A   Mostly Cloudy
8:53 AM 77.0 °F - 73.9 °F 90% 30.04 in 10.0 mi SW 5.8 mph - N/A   Overcast
9:53 AM 79.0 °F - 73.9 °F 84% 30.05 in 10.0 mi SSW 9.2 mph - N/A   Overcast
10:42 AM 80.1 °F 84.5 °F 73.9 °F 81% 30.09 in 10.0 mi SSW 3.5 mph - N/A   Overcast
10:51 AM 80.6 °F 85.4 °F 73.4 °F 79% 30.09 in 10.0 mi SSW 3.5 mph - N/A   Overcast
10:53 AM 80.1 °F 84.5 °F 73.9 °F 81% 30.06 in 10.0 mi SW 5.8 mph - N/A   Overcast
11:02 AM 80.1 °F 84.2 °F 73.0 °F 79% 30.09 in 10.0 mi SSW 5.8 mph - N/A   Overcast
11:25 AM 80.1 °F 84.2 °F 73.0 °F 79% 30.09 in 10.0 mi SSW 4.6 mph - N/A   Overcast
11:53 AM 81.0 °F 85.8 °F 73.0 °F 77% 30.06 in 10.0 mi South 4.6 mph - N/A   Mostly Cloudy
12:15 PM 81.0 °F 85.8 °F 73.0 °F 77% 30.08 in 10.0 mi Variable 4.6 mph - N/A   Mostly Cloudy
12:53 PM 82.0 °F 87.4 °F 73.0 °F 74% 30.05 in 10.0 mi Variable 3.5 mph - N/A   Mostly Cloudy
1:53 PM 82.9 °F 88.8 °F 73.0 °F 72% 30.02 in 10.0 mi Variable 5.8 mph - N/A   Mostly Cloudy
2:08 PM 82.9 °F 88.8 °F 73.0 °F 72% 30.04 in 10.0 mi South 5.8 mph - N/A   Overcast
2:24 PM 81.0 °F 84.9 °F 71.1 °F 72% 30.04 in 10.0 mi SE 8.1 mph - N/A   Overcast
2:53 PM 80.1 °F 84.2 °F 73.0 °F 79% 30.01 in 10.0 mi SE 10.4 mph 16.1 mph N/A   Overcast
3:01 PM 79.0 °F - 73.0 °F 82% 30.04 in 10.0 mi SE 6.9 mph 16.1 mph N/A   Overcast
3:53 PM 77.0 °F - 71.1 °F 82% 30.01 in 10.0 mi SE 6.9 mph - N/A Thunderstorm Overcast
4:05 PM 77.0 °F - 71.1 °F 82% 30.03 in 10.0 mi SE 5.8 mph - N/A Thunderstorm Thunderstorm
4:20 PM 75.9 °F - 72.0 °F 87% 30.03 in 10.0 mi SE 4.6 mph - 0.00 in Rain Light Rain
4:33 PM 75.9 °F - 72.0 °F 87% 30.03 in 10.0 mi Variable 3.5 mph - 0.00 in Rain , Thunderstorm Light Rain
4:53 PM 75.0 °F - 71.1 °F 87% 30.00 in 10.0 mi Variable 3.5 mph - 0.00 in Thunderstorm Mostly Cloudy
5:02 PM 73.9 °F - 71.1 °F 91% 30.02 in 10.0 mi Calm Calm - 0.00 in Rain Light Rain
5:53 PM 75.0 °F - 72.0 °F 90% 29.98 in 10.0 mi Calm Calm - 0.00 in   Mostly Cloudy
7:53 PM 75.0 °F - 72.0 °F 90% 29.97 in 10.0 mi Calm Calm - N/A   Clear
8:53 PM 75.0 °F - 73.0 °F 94% 29.98 in 10.0 mi Calm Calm - N/A   Clear
9:53 PM 73.9 °F - 72.0 °F 93% 29.99 in 10.0 mi Calm Calm - N/A   Clear
10:53 PM 73.9 °F - 72.0 °F 93% 29.99 in 10.0 mi Variable 3.5 mph - N/A   Mostly Cloudy
11:53 PM 73.9 °F - 72.0 °F 93% 29.98 in 10.0 mi Variable 3.5 mph - N/A   Overcast